{"data":{"norad_id":59697,"epoch":"2026-05-24T20:35:38.976000Z","epoch_age_seconds":83168,"freshness":"FRESH","line1":"1 59697U 24086R   26144.85809000  .00014568  00000+0  53803-3 0  9998","line2":"2 59697  43.0016 349.5238 0001593 262.8273  97.2397 15.27570144115767","mean_motion":15.27570144,"eccentricity":0.0001593,"inclination_deg":43.0016,"raan_deg":349.5238,"arg_perigee_deg":262.8273,"mean_anomaly_deg":97.2397,"bstar":0.00053803,"rev_number":11576,"period_min":94.267356929961,"perigee_km":481.98561696156,"apogee_km":484.17160025446,"semimajor_km":6861.215608608,"source":"CELESTRAK","updated_at":"2026-05-25T13:38:19.043151Z"}}